Change the Weather History Date:

Saturday, September 21, 2013

  Actual Average Record
Temperature  
Mean Temperature 75 °F -  
Max Temperature 82 °F 78 °F 84 °F (1997)
Min Temperature 68 °F 64 °F 62 °F (1997)
Cooling Degree Days 10    
Growing Degree Days 25 (Base 50)    
Moisture  
Dew Point 69 °F    
Average Humidity 87    
Maximum Humidity 100    
Minimum Humidity 51    
Precipitation  
Precipitation 0.04 in 0.44 in - ()
Sea Level Pressure  
Sea Level Pressure 29.94 in    
Wind  
Wind Speed 4 mph ()    
Max Wind Speed 12 mph    
Max Gust Speed -    
Visibility 5.6 miles    
Events Fog , Rain    
Averages and records for this station are not official NWS values.
T = Trace of Precipitation, MM = Missing Value Source: Averaged Metar Reports

Daily Weather History Graph

Daily Weather History Graph

Search for Another Location

Airport or City:

Trip Planner

Search our weather history database for the weather conditions in past years. The results will help you decide how hot, cold, wet, or windy it might be!

Date:

Astronomy

Sep. 21, 2013 Rise Set
Actual Time 5:26 AM CST 5:33 PM CST
Civil Twilight 5:05 AM CST 5:54 PM CST
Nautical Twilight 4:40 AM CST 6:18 PM CST
Astronomical Twilight 4:16 AM CST 6:43 PM CST
Moon 7:20 PM CST (9/21) 7:11 AM CST (9/21)
Length of Visible Light 12h 49m
Length of Day
12h 07m
Waning Gibbous, 94% of the Moon is Illuminated
Sep 21
Waning Gibbous
Sep 26
Last Quarter
Oct 4
New
Oct 11
First Quarter
Oct 18
Full

Hourly Weather History & Observations

Time (CST) Temp. Heat Index Dew Point Humidity Pressure Visibility Wind Dir Wind Speed Gust Speed Precip Events Conditions
12:00 AM 69.8 °F - 68.0 °F 94% 30.02 in 6.2 mi East 1.2 mph - N/A   Mostly Cloudy
1:00 AM 69.8 °F - 68.0 °F 94% 30.00 in 6.2 mi East 2.3 mph - N/A   Scattered Clouds
2:00 AM 69.8 °F - 68.0 °F 94% 29.97 in 6.2 mi ESE 4.6 mph - N/A   Mostly Cloudy
3:00 AM 69 °F - 67 °F 92% 29.80 in 12 mi North 3.5 mph - -   Overcast
3:00 AM 69.8 °F - 68.0 °F 94% 29.95 in 6.2 mi North 3.5 mph - N/A   Mostly Cloudy
4:00 AM 68.0 °F - 68.0 °F 100% 29.97 in 0.1 mi SSW 2.3 mph - N/A Fog Fog
5:00 AM 68.0 °F - 68.0 °F 100% 29.97 in 0.7 mi ENE 3.5 mph - N/A   Mostly Cloudy
6:00 AM 69 °F - 68 °F 96% 29.84 in 5 mi ENE 3.5 mph - - Fog Light Fog
6:00 AM 69.8 °F - 68.0 °F 94% 29.99 in 5.0 mi ENE 3.5 mph - N/A Fog Fog
7:00 AM 73.4 °F - 68.0 °F 83% 30.03 in 6.2 mi East 3.5 mph - N/A   Mostly Cloudy
8:00 AM 77.0 °F - 66.2 °F 69% 30.02 in 6.2 mi South 4.6 mph - N/A   Mostly Cloudy
9:00 AM 81 °F - 66 °F 51% 29.86 in 12 mi South 2.3 mph - -   Overcast
9:00 AM 80.6 °F 82.7 °F 66.2 °F 61% 30.01 in 6.2 mi South 2.3 mph - N/A   Mostly Cloudy
10:00 AM 78.8 °F - 68.0 °F 69% 30.01 in 6.2 mi WSW 6.9 mph - N/A   Mostly Cloudy
11:00 AM 80.6 °F 83.9 °F 69.8 °F 70% 29.99 in 6.2 mi WSW 10.4 mph - N/A   Mostly Cloudy
12:00 PM 79 °F - 69 °F 65% 29.78 in 12 mi WSW 11.5 mph - -   Overcast
12:00 PM 78.8 °F - 69.8 °F 74% 29.96 in 6.2 mi WSW 11.5 mph - N/A   Mostly Cloudy
1:00 PM 78.8 °F - 69.8 °F 74% 29.94 in 6.2 mi WSW 11.5 mph - N/A   Mostly Cloudy
2:00 PM 77.0 °F - 69.8 °F 78% 29.92 in 6.2 mi WSW 10.4 mph - N/A   Mostly Cloudy
3:00 PM 73.4 °F - 71.6 °F 94% 29.92 in 6.2 mi SW 6.9 mph - N/A   Mostly Cloudy
4:00 PM 73.4 °F - 68.0 °F 83% 29.92 in 6.2 mi West 5.8 mph - N/A   Mostly Cloudy
5:00 PM 71.6 °F - 69.8 °F 94% 29.92 in 6.2 mi SSW 5.8 mph - N/A Rain Light Rain
6:00 PM 71 °F - 70 °F 96% 29.81 in 5 mi SW 6.9 mph - - Fog Light Fog
6:00 PM 71.6 °F - 69.8 °F 94% 29.93 in 5.0 mi SW 6.9 mph - N/A Fog Fog
7:00 PM 71.6 °F - 69.8 °F 94% 29.95 in 5.0 mi NW 4.6 mph - N/A Fog Fog
8:00 PM 71.6 °F - 69.8 °F 94% 29.97 in 5.0 mi West 2.3 mph - N/A Fog Fog
9:00 PM 71 °F - 69 °F 92% 29.79 in 6 mi WNW 3.5 mph - - Fog Patches of Fog
9:00 PM 71.6 °F - 69.8 °F 94% 29.98 in 6.2 mi WNW 3.5 mph - N/A Fog Patches of Fog
10:00 PM 69.8 °F - 69.8 °F 100% 2.99 in 2.5 mi Calm Calm - N/A Fog Patches of Fog
11:00 PM 69.8 °F - 69.8 °F 100% 29.97 in 3.1 mi West 4.6 mph - N/A   Mostly Cloudy
11:12 PM 69.8 °F - 69.8 °F 100% 29.96 in 1.2 mi SW 3.5 mph - N/A   Mostly Cloudy
11:25 PM 69.8 °F - 69.8 °F 100% 29.96 in 0.3 mi SSW 3.5 mph - N/A Fog Fog